[Date Prev][Date Next][Thread Prev][Thread Next] - [Date Index][Thread Index][Author Index]
2 Line ISS Keps 10-24
- Subject: [sarex] 2 Line ISS Keps 10-24
- From: "Dave Larsen PhD" <doc@xxxxxxxxxxx>
- Date: Sun, 24 Oct 2004 03:10:37 -0700
ISS
1 25544U 98067A 04298.33772771 .00023347 00000-0 19793-3 0 9823
2 25544 51.6376 26.7681 0008587 268.4802 208.9062 15.69522211338609
----
Via the sarex mailing list at AMSAT.ORG courtesy of AMSAT-NA.
To unsubscribe, send "unsubscribe sarex" to Majordomo@amsat.org
AMSAT Home